Content
SEND FEEDBACK

Daily
Averages
Monthly
Summary
United States of America

AGANA, GUAM


Home > North America > United States > Guam
Elevation: 246 feet     Latitude: 13 29N     Longitude: 144 48E

WEATHER
 
SELECT A DAY
Number of Records: 208,807;   Date Range: 1/1/95 - 7/7/14
 
SHARE

PRINT THIS DATA

[ ← Previous Day ]
WEATHER ALMANAC - OCTOBER 12, 2013
[ Next Day → ]
[ °C ]   °F
Weather ElementAverageHighLow
Temperature80.9 °F84.2 °F (1:19 pm)78.8 °F (8:17 am)
Dewpoint77.6 °F80.6 °F (1:19 pm)73.9 °F (8:54 pm)
Humidity90 %100 % (4:40 pm)79 % (11:54 am)
Barometer29.72 in29.79 in (10:07 pm)29.62 in (1:54 am)
Wind Speed13.7 mph21.9 mph (1:38 pm)
Wind Gust36.8 mph (1:38 pm)
Weather ElementAverage
Visibility8.2 mi
Wind DirectionSSE (170.6 °)

Weather ElementTotal
Precipitation1.78 in
Cooling Degree Days16.5 (Base 65)
Growing Degree Days31.5 (Base 50)
Averaged from 50 records on October 12, 2013
WEATHER CONDITIONS BREAKOUT
WIND DIRECTION BREAKOUT
WEATHER BY HOUR - OCTOBER 12, 2013
[ °C ]   °F
Local TimeTemperatureDewpointHumidityBarometerVisibilityWind DirectionWind SpeedGust SpeedPrecipitationEventsConditions
1:03 AM80.6 °F77.0 °F89 %29.65 in10.0 miSouth (170°)12.7 mph21.9 mphMostly Cloudy
1:54 AM82.0 °F77.0 °F85 %29.62 in10.0 miSouth (180°)15.0 mph27.6 mphMostly Cloudy
2:13 AM80.6 °F75.2 °F84 %29.65 in10.0 miSouth (180°)15.0 mph23.0 mphPartly Cloudy
2:54 AM82.0 °F77.0 °F85 %29.63 in10.0 miSouth (180°)13.8 mph21.9 mphMostly Cloudy
3:19 AM82.4 °F77.0 °F84 %29.66 in10.0 miSouth (180°)16.1 mph26.5 mphMostly Cloudy
3:54 AM82.0 °F75.9 °F82 %29.65 in10.0 miSouth (170°)17.3 mph31.1 mphMostly Cloudy
4:54 AM82.0 °F75.9 °F82 %29.66 in10.0 miSouth (180°)12.7 mph20.7 mphMostly Cloudy
5:54 AM82.0 °F75.9 °F82 %29.68 in10.0 miSouth (170°)13.8 mph25.3 mphScattered Clouds
6:54 AM82.0 °F75.9 °F82 %29.69 in10.0 miSouth (170°)12.7 mph26.5 mphScattered Clouds
7:54 AM82.9 °F77.0 °F82 %29.72 in10.0 miSouth (170°)16.1 mph23.0 mphMostly Cloudy
8:17 AM78.8 °F77.0 °F94 %29.76 in2.0 miSouth (170°)16.1 mph32.2 mph0.04 inRainLight Rain
8:21 AM78.8 °F77.0 °F94 %29.76 in4.0 miSouth (170°)12.7 mph23.0 mph0.04 inRainLight Rain
8:54 AM80.1 °F78.1 °F94 %29.75 in9.0 miSouth (170°)11.5 mph0.04 inPartly Cloudy
9:54 AM82.0 °F78.1 °F88 %29.74 in10.0 miSouth (170°)13.8 mph21.9 mph0.00 inMostly Cloudy
10:27 AM80.6 °F78.8 °F94 %29.76 in2.5 miSouth (180°)12.7 mph21.9 mph0.03 inRainLight Rain
10:34 AM80.6 °F78.8 °F94 %29.76 in10.0 miSouth (180°)13.8 mph20.7 mph0.03 inOvercast
10:54 AM81.0 °F77.0 °F88 %29.73 in9.0 miSouth (170°)16.1 mph31.1 mph0.03 inRainLight Rain
11:54 AM82.9 °F75.9 °F79 %29.71 in10.0 miSouth (170°)13.8 mph24.2 mph0.00 inClear
12:54 PM82.0 °F79.0 °F90 %29.70 in10.0 miSouth (170°)13.8 mph25.3 mph0.01 inScattered Clouds
1:19 PM84.2 °F80.6 °F89 %29.71 in8.0 miSSE (160°)17.3 mph26.5 mph0.01 inOvercast
1:38 PM82.4 °F77.0 °F84 %29.72 in5.0 miSouth (170°)21.9 mph36.8 mph0.01 inThunderstormMostly Cloudy
1:40 PM80.6 °F75.2 °F84 %29.71 in1.8 miSouth (180°)21.9 mph36.8 mph0.01 inRain-ThunderstormHeavy Rain
1:51 PM78.8 °F77.0 °F94 %29.71 in7.0 miSouth (170°)13.8 mph25.3 mph0.06 inRain-ThunderstormLight Rain
1:54 PM79.0 °F77.0 °F94 %29.69 in7.0 miSouth (170°)17.3 mph25.3 mph0.06 inRain-ThunderstormLight Rain
2:01 PM80.6 °F78.8 °F94 %29.70 in7.0 miSouth (170°)13.8 mph25.3 mphScattered Clouds
2:31 PM82.4 °F78.8 °F89 %29.69 in9.0 miSSE (160°)11.5 mph26.5 mphThunderstormThunderstorm
2:54 PM80.1 °F79.0 °F96 %29.67 in4.0 miSSW (200°)9.2 mph27.6 mph0.23 inRainRain
3:15 PM82.4 °F78.8 °F89 %29.70 in9.0 miSSE (160°)18.4 mph26.5 mph0.01 inThunderstormMostly Cloudy
3:25 PM80.6 °F78.8 °F94 %29.70 in10.0 miSSE (160°)12.7 mph24.2 mph0.01 inOvercast
3:54 PM82.0 °F79.0 °F90 %29.67 in9.0 miSSE (160°)13.8 mph21.9 mph0.01 inMostly Cloudy
4:25 PM82.4 °F78.8 °F89 %29.70 in10.0 miSouth (170°)12.7 mph24.2 mphOvercast
4:32 PM82.4 °F78.8 °F89 %29.72 in0.8 miSouth (190°)17.3 mph26.5 mph0.02 inRainHeavy Rain
4:36 PM80.6 °F78.8 °F94 %29.72 in1.0 miSSW (200°)12.7 mph26.5 mph0.16 inRainHeavy Rain
4:40 PM78.8 °F78.8 °F100 %29.72 in2.0 miSouth (180°)10.4 mph25.3 mph0.21 inRain-ThunderstormLight Thunderstorms and Rain
4:43 PM78.8 °F78.8 °F100 %29.72 in5.0 miSouth (170°)8.1 mph24.2 mph0.21 inRain-ThunderstormLight Thunderstorms and Rain
4:54 PM79.0 °F77.0 °F94 %29.70 in10.0 miSouth (180°)8.1 mph0.22 inRain-ThunderstormLight Thunderstorms and Rain
5:35 PM78.8 °F78.8 °F100 %29.72 in9.0 miSouth (180°)11.5 mph19.6 mph0.11 inRain-ThunderstormLight Thunderstorms and Rain
5:47 PM78.8 °F77.0 °F94 %29.72 in10.0 miSouth (170°)12.7 mph0.11 inMostly Cloudy
5:54 PM80.1 °F77.0 °F90 %29.70 in10.0 miSSE (160°)12.7 mph21.9 mph0.11 inMostly Cloudy
6:48 PM80.6 °F78.8 °F94 %29.75 in10.0 miSSE (160°)17.3 mph28.8 mph0.00 inMostly Cloudy
6:54 PM81.0 °F78.1 °F91 %29.73 in10.0 miSouth (170°)15.0 mph24.2 mph0.00 inRainLight Rain
7:54 PM80.1 °F75.0 °F85 %29.75 in10.0 miSouth (180°)11.5 mph0.00 inRainLight Rain
8:54 PM80.1 °F73.9 °F81 %29.76 in10.0 miSouth (180°)9.2 mph20.7 mph0.00 inScattered Clouds
9:54 PM79.0 °F77.0 °F94 %29.78 in10.0 miSSE (160°)10.4 mphScattered Clouds
10:07 PM80.6 °F78.8 °F94 %29.79 in10.0 miSSE (150°)11.5 mph21.9 mphMostly Cloudy
10:34 PM80.6 °F78.8 °F94 %29.79 in10.0 miSSE (150°)11.5 mph18.4 mphScattered Clouds
10:54 PM81.0 °F78.1 °F91 %29.76 in10.0 miSSE (150°)12.7 mph19.6 mphScattered Clouds
10:55 PM80.6 °F78.8 °F94 %29.79 in10.0 miSSE (150°)10.4 mph19.6 mphMostly Cloudy
11:04 PM80.6 °F78.8 °F94 %29.78 in10.0 miSSE (160°)12.7 mph20.7 mphScattered Clouds
11:54 PM81.0 °F77.0 °F88 %29.76 in10.0 miSSE (160°)15.0 mph21.9 mphPartly Cloudy
Hourly data recorded from PGUM, located miles away from Agana, Guam







STORIES FROM OUR PARTNERS